| time (UTC) | temp C | wind direction | speed KPH | gust KPH | rain 1hr cm | rain 24hr cm | rain mn cm | humidity % | barometer mb |
| 20260503053015 | 11 | 113 | 9.7 | 14.5 | 0.00 | 0.00 | 0.00 | 69 | 1018.1 |
| 20260503052015 | 11 | 113 | 8.0 | 17.7 | 0.00 | 0.00 | 0.00 | 72 | 1018.1 |
| 20260503051035 | 10 | 113 | 6.4 | 14.5 | 0.00 | 0.00 | 0.00 | 76 | 1018.1 |
| 20260503050015 | 8 | 90 | 3.2 | 8.0 | 0.00 | 0.00 | 0.00 | 83 | 1018.0 |
| 20260503045015 | 6 | 90 | 1.6 | 3.2 | 0.00 | 0.00 | 0.00 | 86 | 1017.9 |
| 20260503044015 | 5 | 68 | 1.6 | 3.2 | 0.00 | 0.00 | 0.00 | 86 | 1017.9 |
| 20260503043015 | 5 | 68 | 1.6 | 3.2 | 0.00 | 0.00 | 0.00 | 86 | 1017.8 |
| 20260503042015 | 4 | 68 | 1.6 | 4.8 | 0.00 | 0.00 | 0.00 | 86 | 1017.8 |
| 20260503041015 | 3 | 23 | 1.6 | 3.2 | 0.00 | 0.00 | 0.00 | 86 | 1017.6 |
| 20260503040015 | 3 | 0.0 | 0.0 | 0.00 | 0.00 | 0.00 | 86 | 1017.7 | |
| 20260503035035 | 3 | 0.0 | 1.6 | 0.00 | 0.00 | 0.00 | 85 | 1017.7 | |
| 20260503034036 | 3 | 23 | 1.6 | 3.2 | 0.00 | 0.00 | 0.00 | 85 | 1017.6 |
| 20260503033015 | 4 | 0.0 | 0.0 | 0.00 | 0.00 | 0.00 | 85 | 1017.6 | |
| 20260503032015 | 4 | 23 | 1.6 | 3.2 | 0.00 | 0.00 | 0.00 | 85 | 1017.6 |
| 20260503031015 | 4 | 23 | 1.6 | 3.2 | 0.00 | 0.00 | 0.00 | 84 | 1017.4 |
| 20260503030035 | 5 | 0.0 | 3.2 | 0.00 | 0.00 | 0.00 | 84 | 1017.4 | |
| 20260503025037 | 5 | 23 | 3.2 | 3.2 | 0.00 | 0.00 | 0.00 | 84 | 1017.4 |
| 20260503024017 | 5 | 23 | 3.2 | 4.8 | 0.00 | 0.00 | 0.00 | 85 | 1017.6 |
| 20260503022015 | 3 | 23 | 3.2 | 4.8 | 0.00 | 0.00 | 0.00 | 86 | 1017.5 |
| 20260503021016 | 3 | 113 | 1.6 | 6.4 | 0.00 | 0.00 | 0.00 | 86 | 1017.4 |
| 20260503020017 | 3 | 338 | 3.2 | 6.4 | 0.00 | 0.00 | 0.00 | 86 | 1017.2 |
| 20260503015015 | 3 | 338 | 1.6 | 3.2 | 0.00 | 0.00 | 0.00 | 85 | 1017.1 |
| 20260503014035 | 3 | 0.0 | 0.0 | 0.00 | 0.00 | 0.00 | 85 | 1017.1 | |
| 20260503013015 | 3 | 338 | 1.6 | 3.2 | 0.00 | 0.00 | 0.00 | 85 | 1017.1 |
| 20260503012017 | 3 | 338 | 3.2 | 3.2 | 0.00 | 0.00 | 0.00 | 85 | 1017.2 |
| 20260503011015 | 3 | 338 | 3.2 | 4.8 | 0.00 | 0.00 | 0.00 | 86 | 1017.2 |
| 20260503010016 | 3 | 338 | 3.2 | 4.8 | 0.00 | 0.00 | 0.00 | 85 | 1017.2 |
| 20260503005015 | 3 | 338 | 1.6 | 3.2 | 0.00 | 0.00 | 0.00 | 85 | 1017.2 |
| 20260503004015 | 3 | 0.0 | 1.6 | 0.00 | 0.00 | 0.00 | 85 | 1017.1 | |
| 20260503003016 | 3 | 338 | 1.6 | 3.2 | 0.00 | 0.00 | 0.00 | 84 | 1017.2 |
| 20260503002036 | 4 | 0.0 | 0.0 | 0.00 | 0.00 | 0.00 | 84 | 1017.3 | |
| 20260503000015 | 4 | 338 | 1.6 | 3.2 | 0.00 | 0.00 | 0.00 | 84 | 1017.4 |
| 20260502235015 | 4 | 338 | 3.2 | 4.8 | 0.00 | 0.00 | 0.00 | 84 | 1017.5 |
| 20260502234015 | 4 | 0.0 | 1.6 | 0.00 | 0.00 | 0.00 | 83 | 1017.6 | |
| 20260502233015 | 5 | 0.0 | 0.0 | 0.00 | 0.00 | 0.00 | 83 | 1017.6 | |
| 20260502232037 | 5 | 0.0 | 1.6 | 0.00 | 0.00 | 0.00 | 82 | 1017.7 | |
| 20260502231057 | 5 | 338 | 1.6 | 3.2 | 0.00 | 0.00 | 0.00 | 82 | 1017.7 |
| 20260502230015 | 5 | 338 | 1.6 | 3.2 | 0.00 | 0.00 | 0.00 | 82 | 1017.8 |
| 20260502225036 | 5 | 0.0 | 0.0 | 0.00 | 0.00 | 0.00 | 81 | 1017.8 | |
| 20260502224016 | 6 | 0.0 | 0.0 | 0.00 | 0.00 | 0.00 | 81 | 1017.9 | |
| 20260502223016 | 6 | 0.0 | 0.0 | 0.00 | 0.00 | 0.00 | 80 | 1018.0 | |
| 20260502222015 | 6 | 338 | 1.6 | 4.8 | 0.00 | 0.00 | 0.00 | 80 | 1017.9 |
| 20260502221037 | 6 | 338 | 1.6 | 4.8 | 0.00 | 0.00 | 0.00 | 79 | 1018.0 |
| 20260502220037 | 6 | 338 | 1.6 | 3.2 | 0.00 | 0.00 | 0.00 | 78 | 1018.1 |
| 20260502215017 | 6 | 338 | 1.6 | 3.2 | 0.00 | 0.00 | 0.00 | 78 | 1018.0 |
| 20260502214017 | 7 | 0.0 | 1.6 | 0.00 | 0.00 | 0.00 | 77 | 1018.0 | |
| 20260502213019 | 7 | 338 | 1.6 | 3.2 | 0.00 | 0.00 | 0.00 | 75 | 1018.0 |
| 20260502212037 | 7 | 0.0 | 1.6 | 0.00 | 0.00 | 0.00 | 74 | 1018.0 | |
| 20260502211016 | 7 | 338 | 1.6 | 4.8 | 0.00 | 0.00 | 0.00 | 73 | 1018.1 |
| 20260502210015 | 8 | 338 | 3.2 | 4.8 | 0.00 | 0.00 | 0.00 | 73 | 1018.1 |
| 20260502205015 | 8 | 338 | 4.8 | 6.4 | 0.00 | 0.00 | 0.00 | 72 | 1018.2 |
| 20260502204015 | 8 | 338 | 4.8 | 6.4 | 0.00 | 0.00 | 0.00 | 72 | 1018.2 |
| 20260502203015 | 8 | 338 | 3.2 | 4.8 | 0.00 | 0.00 | 0.00 | 71 | 1018.2 |
| 20260502202037 | 9 | 338 | 3.2 | 4.8 | 0.00 | 0.00 | 0.00 | 69 | 1018.2 |
| 20260502201036 | 10 | 0.0 | 3.2 | 0.00 | 0.00 | 0.00 | 67 | 1018.3 | |
| 20260502200056 | 10 | 338 | 3.2 | 4.8 | 0.00 | 0.00 | 0.00 | 65 | 1018.4 |
| 20260502195015 | 11 | 338 | 3.2 | 6.4 | 0.00 | 0.00 | 0.00 | 64 | 1018.4 |
| 20260502194015 | 11 | 338 | 4.8 | 6.4 | 0.00 | 0.00 | 0.00 | 63 | 1018.4 |
| 20260502193015 | 11 | 338 | 3.2 | 4.8 | 0.00 | 0.00 | 0.00 | 62 | 1018.3 |
| 20260502192015 | 11 | 338 | 4.8 | 6.4 | 0.00 | 0.00 | 0.00 | 62 | 1018.3 |
| 20260502191015 | 11 | 338 | 3.2 | 6.4 | 0.00 | 0.00 | 0.00 | 61 | 1018.4 |
| 20260502190035 | 12 | 0.0 | 3.2 | 0.00 | 0.00 | 0.00 | 60 | 1018.4 | |
| 20260502185016 | 12 | 338 | 3.2 | 4.8 | 0.00 | 0.00 | 0.00 | 58 | 1018.2 |
| 20260502184016 | 12 | 338 | 4.8 | 4.8 | 0.00 | 0.00 | 0.00 | 57 | 1018.1 |
| 20260502183015 | 13 | 338 | 3.2 | 4.8 | 0.00 | 0.00 | 0.00 | 56 | 1018.2 |
| 20260502182015 | 13 | 338 | 3.2 | 4.8 | 0.00 | 0.00 | 0.00 | 55 | 1018.0 |
| 20260502181016 | 15 | 338 | 3.2 | 4.8 | 0.00 | 0.00 | 0.00 | 53 | 1018.0 |
| 20260502164015 | 23 | 90 | 1.6 | 6.4 | 0.00 | 0.00 | 0.00 | 32 | 1018.4 |
| 20260502163016 | 23 | 23 | 3.2 | 6.4 | 0.00 | 0.00 | 0.00 | 30 | 1018.5 |
| 20260502162015 | 23 | 45 | 1.6 | 4.8 | 0.00 | 0.00 | 0.00 | 31 | 1018.6 |
| 20260502161015 | 23 | 45 | 3.2 | 6.4 | 0.00 | 0.00 | 0.00 | 30 | 1018.7 |
| 20260502152015 | 24 | 113 | 4.8 | 8.0 | 0.00 | 0.00 | 0.00 | 29 | 1019.3 |
| 20260502151015 | 24 | 90 | 4.8 | 8.0 | 0.00 | 0.00 | 0.00 | 31 | 1019.4 |
| 20260502123035 | 23 | 135 | 4.8 | 12.9 | 0.00 | 0.00 | 0.00 | 32 | 1021.2 |
| 20260502121016 | 22 | 68 | 6.4 | 12.9 | 0.00 | 0.00 | 0.00 | 33 | 1021.5 |
| 20260502115037 | 22 | 45 | 4.8 | 11.3 | 0.00 | 0.00 | 0.00 | 34 | 1021.7 |
| 20260502114015 | 22 | 135 | 6.4 | 14.5 | 0.00 | 0.00 | 0.00 | 35 | 1021.8 |
| 20260502113016 | 22 | 68 | 6.4 | 12.9 | 0.00 | 0.00 | 0.00 | 37 | 1022.0 |
| 20260502112016 | 22 | 23 | 8.0 | 17.7 | 0.00 | 0.00 | 0.00 | 37 | 1022.2 |
| 20260502111015 | 22 | 68 | 8.0 | 17.7 | 0.00 | 0.00 | 0.00 | 37 | 1022.2 |
| 20260502110015 | 22 | 338 | 3.2 | 9.7 | 0.00 | 0.00 | 0.00 | 39 | 1022.4 |
| 20260502105036 | 22 | 68 | 4.8 | 8.0 | 0.00 | 0.00 | 0.00 | 36 | 1022.6 |
| 20260502104015 | 21 | 90 | 3.2 | 9.7 | 0.00 | 0.00 | 0.00 | 38 | 1022.7 |
| 20260502103015 | 21 | 68 | 4.8 | 11.3 | 0.00 | 0.00 | 0.00 | 38 | 1022.8 |
| 20260502101016 | 21 | 45 | 6.4 | 12.9 | 0.00 | 0.00 | 0.00 | 38 | 1023.1 |
| 20260502091017 | 20 | 315 | 4.8 | 9.7 | 0.00 | 0.00 | 0.00 | 46 | 1023.7 |
| 20260502071016 | 13 | 293 | 9.7 | 17.7 | 0.00 | 0.00 | 0.00 | 63 | 1024.4 |
| 20260502070017 | 12 | 315 | 8.0 | 12.9 | 0.00 | 0.00 | 0.00 | 63 | 1024.4 |
| 20260502065016 | 12 | 293 | 9.7 | 16.1 | 0.00 | 0.00 | 0.00 | 64 | 1024.4 |
| 20260502064015 | 12 | 315 | 8.0 | 16.1 | 0.00 | 0.00 | 0.00 | 64 | 1024.4 |
| 20260502063016 | 11 | 293 | 8.0 | 14.5 | 0.00 | 0.00 | 0.00 | 66 | 1024.4 |
| 20260502062037 | 11 | 293 | 11.3 | 19.3 | 0.00 | 0.00 | 0.00 | 68 | 1024.6 |
| 20260502061036 | 10 | 315 | 9.7 | 19.3 | 0.00 | 0.00 | 0.00 | 67 | 1024.5 |
| 20260502060016 | 10 | 293 | 8.0 | 12.9 | 0.00 | 0.00 | 0.00 | 69 | 1024.5 |
| 20260502055016 | 10 | 315 | 6.4 | 12.9 | 0.00 | 0.00 | 0.00 | 70 | 1024.7 |
| 20260502054015 | 9 | 270 | 9.7 | 17.7 | 0.00 | 0.00 | 0.00 | 70 | 1024.5 |